SCOUT A R/B, 1865

Orbit data source: Space-Track

SCOUT A R/B, 1865 is space debris in LEO originally from a launch on Wed, 22 Dec 1965 UTC launched from the Air Force Western Test Range (AFWTR). Debris objects in space refer to the collection of defunct objects orbiting the Earth. Examples of debris include non-operational satellites, rocket bodies, and fragments generated from explosions, collisions, or faulty payload assembly.

Loading next visibility...
Identifier
1865, 1965-109B
Orbit
LEO
Country
Flag of USUS
Related business
Manufacturer
ABL
Mission
Spacecraft
Bus & Motor
ALTAIR, Unknown motor
Mass
33 kg wet, 33 kg dry
Launch date (UTC)
1965-12-22 (60 years ago)
Launch vehicle
Unknown
Launch site
Air Force Western Test Range (AFWTR)
Object type
Payload
Rocket body
Debris
Shape & HBR
Unknown
Radar Cross Section
Medium (>0.1 m² and <1 m²)

Expand to show TLE details & history
Last TLE update: 14 hours ago

TLE from 14 hours ago
0 SCOUT A R/B
1  1865U 65109B   26131.03238791  .00000114  00000-0  96698-4 0  9995
2  1865  89.0691 252.6839 0113665  97.7344 263.6746 13.76827476 28528
Epoch: 2026-05-11T00:46Z
TLE epoch observation values (Epoch: 2026-05-11T00:46:38.315Z)
Latitude
0.00001°
Longitude
12.19731°
Altitude
988.3 km
Speed
7.352 km/s
True Right ascension
16h 50m 44s
True Declination
0° 00' 00"
Sunlit
Object was in full shadow at epoch
Visualization orbit readout
Latitude
Unknown
Longitude
Unknown
Altitude
Unknown
Speed
Unknown
Apparent Right ascension
Unknown
Apparent Declination
Unknown
Sunlit
N/A
Visualization observer readout
Local Sidereal Time
22:58:41
Azimuth
Unknown
Elevation
Unknown
Doppler factor
Unknown
Orbital elements
Apogee altitude
1,055.721 km
Perigee altitude
888.626 km
Semi-major axis
7,350.31 km
Eccentricity
0.01137
Inclination
89.0691°
RAAN
252.6839°
Arg. of periapsis
97.7344°
True anomaly
262.38216°
Mean anomaly
263.6746°
Eccentric anomaly
263.02816°
Mean motion
3.44417 °/min
Orbital period
104.52 mins
BSTAR
0.000096698
Loading maneuver chart data...
Computing Atmospheric mass density...
Loading historical data...
Loading historical data...
Loading historical data...
Loading historical data...
Loading historical data...
Loading historical data...
Loading historical data...

Documentation

Showing up to 5 results
|